Test XHTML 1.0 Strict Page for WU-History Testing
Histórico de la Estación METEOCORUÑA
Diario Datos del Junio 13, 2018 Unidades:  Metrico    Inglés   Ambos
« Prev Dia
Sig Dia »
Diario Semanal Mensual Anual Rango
  Max: Min: Media:
Temp: -17.8 °C -9.9 °C -9.2 °C
Rocío: -17.8 °C -10.7 °C -10.2 °C
Humedad: Humidity % 81 % 89 %
Vel. viento: 0 km/h 2.6 km/h 10.5 km/h
Racha: 0 km/h - -
Viento:- - NW
Presión: 0 hPa 34621.9 hPa -
Lluvia: 0 mm    
Historical Graphs
 
 
Busqueda de Junio 13, 2018
Hora Temp Rocío Presión Viento Vel. viento Racha Humedad Ratio lluvia (/hora) Radiación
-17.8 °C -17.8 °C 0 hPa Calm     Humidity % 0 mm SolarRadiationWatts/m^2 W/m2
00:04 -9.4 °C -9.9 °C 34659.1 hPa NW 12.9 km/h 23.3 km/h 94 % 0 mm 0.00 W/m2
00:09 -9.4 °C -9.8 °C 34662.5 hPa NW 12.9 km/h 31.1 km/h 95 % 0 mm 0.00 W/m2
00:14 -9.4 °C -9.9 °C 34665.9 hPa NW 12.9 km/h 28.5 km/h 95 % 0 mm 0.00 W/m2
00:19 -9.5 °C -9.9 °C 34665.9 hPa NW 12.9 km/h 23.3 km/h 95 % 0 mm 0.00 W/m2
00:24 -9.5 °C -9.9 °C 34665.9 hPa NNW 12.9 km/h 20.8 km/h 95 % 0 mm 0.00 W/m2
00:29 -9.6 °C -10 °C 34669.3 hPa NNW 10.3 km/h 15.6 km/h 95 % 0 mm 0.00 W/m2
00:34 -9.6 °C -10 °C 34669.3 hPa NNW 7.7 km/h 23.3 km/h 95 % 0 mm 0.00 W/m2
00:39 -9.6 °C -10 °C 34669.3 hPa NNW 7.7 km/h 18.2 km/h 95 % 0 mm 0.00 W/m2
00:44 -9.6 °C -10 °C 34669.3 hPa NW 7.7 km/h 23.3 km/h 95 % 0 mm 0.00 W/m2
00:49 -9.6 °C -10 °C 34665.9 hPa NNW 10.3 km/h 25.9 km/h 95 % 0 mm 0.00 W/m2
00:54 -9.6 °C -10 °C 34669.3 hPa NW 10.3 km/h 23.3 km/h 95 % 0 mm 0.00 W/m2
00:59 -9.6 °C -10 °C 34669.3 hPa NW 12.9 km/h 31.1 km/h 95 % 0 mm 0.00 W/m2
01:04 -9.6 °C -10 °C 34669.3 hPa NW 12.9 km/h 23.3 km/h 95 % 0 mm 0.00 W/m2
01:09 -9.6 °C -10 °C 34669.3 hPa NNW 12.9 km/h 31.1 km/h 95 % 0 mm 0.00 W/m2
01:14 -9.6 °C -10 °C 34672.6 hPa NW 12.9 km/h 31.1 km/h 95 % 0 mm 0.00 W/m2
01:19 -9.6 °C -10 °C 34669.3 hPa NW 12.9 km/h 28.5 km/h 95 % 0 mm 0.00 W/m2
01:24 -9.6 °C -10 °C 34669.3 hPa NNW 12.9 km/h 20.8 km/h 95 % 0 mm 0.00 W/m2
01:29 -9.6 °C -10.1 °C 34672.6 hPa NW 10.3 km/h 20.8 km/h 95 % 0 mm 0.00 W/m2
01:34 -9.6 °C -9.9 °C 34672.6 hPa NW 7.7 km/h 20.8 km/h 96 % 0 mm 0.00 W/m2
01:39 -9.6 °C -9.9 °C 34672.6 hPa NW 10.3 km/h 20.8 km/h 96 % 0 mm 0.00 W/m2
01:44 -9.6 °C -9.9 °C 34672.6 hPa NW 7.7 km/h 23.3 km/h 96 % 0 mm 0.00 W/m2
01:49 -9.6 °C -9.9 °C 34672.6 hPa WNW 7.7 km/h 18.2 km/h 96 % 0 mm 0.00 W/m2
01:54 -9.6 °C -9.9 °C 34676 hPa NW 10.3 km/h 25.9 km/h 96 % 0 mm 0.00 W/m2
01:59 -9.6 °C -9.9 °C 34676 hPa NW 12.9 km/h 20.8 km/h 96 % 0 mm 0.00 W/m2
02:04 -9.6 °C -9.9 °C 34676 hPa NW 10.3 km/h 23.3 km/h 96 % 0 mm 0.00 W/m2
02:09 -9.6 °C -9.9 °C 34679.4 hPa NNW 10.3 km/h 28.5 km/h 96 % 0 mm 0.00 W/m2
02:14 -9.6 °C -9.9 °C 34679.4 hPa NNW 10.3 km/h 25.9 km/h 96 % 0 mm 0.00 W/m2
02:19 -9.6 °C -9.9 °C 34679.4 hPa NW 10.3 km/h 23.3 km/h 96 % 0 mm 0.00 W/m2
02:24 -9.6 °C -9.9 °C 34679.4 hPa NW 10.3 km/h 33.6 km/h 96 % 0 mm 0.00 W/m2
02:29 -9.6 °C -9.9 °C 34676 hPa NNW 12.9 km/h 23.3 km/h 96 % 0 mm 0.00 W/m2
02:34 -9.6 °C -9.9 °C 34676 hPa NW 12.9 km/h 23.3 km/h 96 % 0 mm 0.00 W/m2
02:39 -9.7 °C -10.1 °C 34676 hPa NW 10.3 km/h 23.3 km/h 96 % 0 mm 0.00 W/m2
02:44 -9.7 °C -10.1 °C 34672.6 hPa NW 10.3 km/h 25.9 km/h 96 % 0 mm 0.00 W/m2
02:49 -9.7 °C -10.1 °C 34672.6 hPa WNW 10.3 km/h 23.3 km/h 96 % 0 mm 0.00 W/m2
02:54 -9.7 °C -10.1 °C 34669.3 hPa NNW 10.3 km/h 12.9 km/h 96 % 0 mm 0.00 W/m2
02:59 -9.8 °C -10.1 °C 34669.3 hPa WNW 5.1 km/h 20.8 km/h 96 % 0 mm 0.00 W/m2
03:04 -9.8 °C -10.1 °C 34665.9 hPa NW 5.1 km/h 18.2 km/h 96 % 0 mm 0.00 W/m2
03:09 -9.8 °C -10.1 °C 34665.9 hPa NW 7.7 km/h 18.2 km/h 96 % 0 mm 0.00 W/m2
03:14 -9.8 °C -10.1 °C 34665.9 hPa NW 7.7 km/h 20.8 km/h 96 % 0 mm 0.00 W/m2
03:19 -9.8 °C -10.2 °C 34665.9 hPa NW 7.7 km/h 23.3 km/h 96 % 0 mm 0.00 W/m2
03:24 -9.8 °C -10.2 °C 34669.3 hPa NW 7.7 km/h 20.8 km/h 96 % 0 mm 0.00 W/m2
03:29 -9.8 °C -10.2 °C 34669.3 hPa NW 7.7 km/h 23.3 km/h 96 % 0 mm 0.00 W/m2
03:34 -9.8 °C -10.2 °C 34669.3 hPa NW 7.7 km/h 15.6 km/h 96 % 0 mm 0.00 W/m2
03:39 -9.8 °C -10.1 °C 34669.3 hPa NW 7.7 km/h 15.6 km/h 96 % 0 mm 0.00 W/m2
03:44 -9.8 °C -10.2 °C 34669.3 hPa NW 7.7 km/h 25.9 km/h 96 % 0 mm 0.00 W/m2
03:49 -9.8 °C -10.2 °C 34669.3 hPa NW 7.7 km/h 20.8 km/h 96 % 0 mm 0.00 W/m2
03:54 -9.8 °C -10.2 °C 34669.3 hPa NW 7.7 km/h 23.3 km/h 96 % 0 mm 0.00 W/m2
03:59 -9.8 °C -10.2 °C 34669.3 hPa NW 10.3 km/h 18.2 km/h 96 % 0 mm 0.00 W/m2
04:04 -9.8 °C -10.2 °C 34669.3 hPa NW 10.3 km/h 28.5 km/h 96 % 0 mm 0.00 W/m2
04:09 -9.8 °C -10.2 °C 34669.3 hPa NW 10.3 km/h 23.3 km/h 96 % 0 mm 0.00 W/m2
04:14 -9.8 °C -10.2 °C 34669.3 hPa NW 12.9 km/h 25.9 km/h 96 % 0 mm 0.00 W/m2
04:19 -9.8 °C -10.3 °C 34669.3 hPa NW 10.3 km/h 23.3 km/h 95 % 0 mm 0.00 W/m2
04:24 -9.9 °C -10.3 °C 34665.9 hPa NW 10.3 km/h 23.3 km/h 95 % 0 mm 0.00 W/m2
04:29 -9.8 °C -10.3 °C 34665.9 hPa NNW 10.3 km/h 20.8 km/h 95 % 0 mm 0.00 W/m2
04:34 -9.9 °C -10.3 °C 34665.9 hPa NW 12.9 km/h 20.8 km/h 95 % 0 mm 0.00 W/m2
04:39 -9.9 °C -10.3 °C 34665.9 hPa NW 10.3 km/h 20.8 km/h 95 % 0 mm 0.00 W/m2
04:44 -9.9 °C -10.3 °C 34662.5 hPa NW 10.3 km/h 31.1 km/h 95 % 0 mm 0.00 W/m2
04:49 -9.9 °C -10.4 °C 34659.1 hPa NW 10.3 km/h 28.5 km/h 95 % 0 mm 0.00 W/m2
04:54 -9.9 °C -10.4 °C 34655.7 hPa NW 12.9 km/h 23.3 km/h 95 % 0 mm 0.00 W/m2
04:59 -9.9 °C -10.4 °C 34655.7 hPa WNW 12.9 km/h 23.3 km/h 94 % 0 mm 0.00 W/m2
05:04 -9.9 °C -10.4 °C 34655.7 hPa NW 10.3 km/h 25.9 km/h 94 % 0 mm 0.00 W/m2
05:09 -9.9 °C -10.4 °C 34655.7 hPa NW 10.3 km/h 18.2 km/h 94 % 0 mm 0.00 W/m2
05:14 -9.9 °C -10.4 °C 34652.3 hPa NW 10.3 km/h 15.6 km/h 94 % 0 mm 0.00 W/m2
05:19 -9.9 °C -10.4 °C 34652.3 hPa NW 10.3 km/h 18.2 km/h 94 % 0 mm 0.00 W/m2
05:24 -9.9 °C -10.4 °C 34652.3 hPa NW 7.7 km/h 25.9 km/h 94 % 0 mm 0.00 W/m2
05:29 -9.9 °C -10.6 °C 34652.3 hPa NW 10.3 km/h 15.6 km/h 93 % 0 mm 0.00 W/m2
05:34 -9.9 °C -10.5 °C 34648.9 hPa WNW 10.3 km/h 12.9 km/h 93 % 0 mm 0.00 W/m2
05:39 -9.9 °C -10.5 °C 34645.6 hPa WNW 7.7 km/h 23.3 km/h 93 % 0 mm 0.00 W/m2
05:44 -9.9 °C -10.6 °C 34645.6 hPa WNW 7.7 km/h 18.2 km/h 93 % 0 mm 0.00 W/m2
05:49 -9.9 °C -10.6 °C 34642.2 hPa WNW 7.7 km/h 7.7 km/h 93 % 0 mm 0.00 W/m2
05:54 -9.9 °C -10.6 °C 34642.2 hPa WNW 5.1 km/h 10.3 km/h 92 % 0 mm 0.00 W/m2
05:59 -9.9 °C -10.7 °C 34638.8 hPa WNW 7.7 km/h 23.3 km/h 92 % 0 mm 0.00 W/m2
06:04 -9.9 °C -10.6 °C 34638.8 hPa NW 7.7 km/h 18.2 km/h 92 % 0 mm 0.00 W/m2
06:09 -9.9 °C -10.7 °C 34635.4 hPa NW 10.3 km/h 20.8 km/h 92 % 0 mm 0.00 W/m2
06:14 -9.9 °C -10.7 °C 34638.8 hPa WNW 7.7 km/h 20.8 km/h 92 % 0 mm 0.00 W/m2
06:19 -9.9 °C -10.7 °C 34635.4 hPa WNW 10.3 km/h 12.9 km/h 92 % 0 mm 0.00 W/m2
06:24 -9.9 °C -10.6 °C 34632 hPa NW 7.7 km/h 12.9 km/h 92 % 0 mm 0.00 W/m2
06:29 -9.9 °C -10.6 °C 34621.9 hPa NW 9 km/h 3.7 km/h 92 % 0 mm 0.00 W/m2
06:34 -9.9 °C -10.6 °C 34621.9 hPa NW 11.9 km/h 5.1 km/h 92 % 0 mm 0.00 W/m2
06:39 -9.9 °C -10.6 °C 34621.9 hPa WNW 15.6 km/h 8.9 km/h 92 % 0 mm 0.00 W/m2
06:44 -9.9 °C -10.6 °C 34625.2 hPa WNW 12.9 km/h 9.7 km/h 92 % 0 mm 0.00 W/m2
06:48 -9.9 °C -10.7 °C 34625.2 hPa WNW 15 km/h 8.2 km/h 91 % 0 mm 0.00 W/m2
06:54 -9.9 °C -10.7 °C 34628.6 hPa West 18.2 km/h 9.7 km/h 91 % 0 mm 0.00 W/m2
06:59 -9.8 °C -10.7 °C 34635.4 hPa WNW 18.2 km/h 12.2 km/h 91 % 0 mm 0.00 W/m2
07:04 -9.8 °C -10.6 °C 34635.4 hPa NW 23.8 km/h 17.4 km/h 91 % 0 mm 5.00 W/m2
07:09 -9.7 °C -10.5 °C 34638.8 hPa West 28.5 km/h 14 km/h 91 % 0 mm 7.00 W/m2
07:14 -9.8 °C -10.6 °C 34638.8 hPa WNW 17.9 km/h 7.2 km/h 91 % 0 mm 9.00 W/m2
07:19 -9.8 °C -10.5 °C 34638.8 hPa NW 20.9 km/h 8.9 km/h 92 % 0 mm 12.00 W/m2
07:24 -9.8 °C -10.5 °C 34635.4 hPa WNW 9 km/h 5.1 km/h 92 % 0 mm 16.00 W/m2
07:29 -9.8 °C -10.5 °C 34635.4 hPa NW 15 km/h 8 km/h 92 % 0 mm 16.00 W/m2
07:34 -9.8 °C -10.5 °C 34635.4 hPa WNW 12.9 km/h 5.6 km/h 92 % 0 mm 19.00 W/m2
07:39 -9.8 °C -10.5 °C 34638.8 hPa WNW 15 km/h 4.3 km/h 92 % 0 mm 23.00 W/m2
07:44 -9.8 °C -10.4 °C 34638.8 hPa WNW 10.3 km/h 6.4 km/h 93 % 0 mm 23.00 W/m2
07:49 -9.8 °C -10.4 °C 34635.4 hPa WNW 11.9 km/h 3.9 km/h 93 % 0 mm 26.00 W/m2
07:54 -9.8 °C -10.4 °C 34635.4 hPa NNW 15 km/h 8.5 km/h 93 % 0 mm 28.00 W/m2
07:59 -9.8 °C -10.4 °C 34632 hPa NW 15.6 km/h 8.5 km/h 93 % 0 mm 25.00 W/m2
08:04 -9.8 °C -10.4 °C 34635.4 hPa NW 17.9 km/h 8 km/h 93 % 0 mm 26.00 W/m2
08:09 -9.8 °C -10.4 °C 34638.8 hPa NW 18.2 km/h 9.8 km/h 93 % 0 mm 25.00 W/m2
08:14 -9.8 °C -10.4 °C 34638.8 hPa WNW 15.6 km/h 11.1 km/h 93 % 0 mm 33.00 W/m2
08:19 -9.8 °C -10.4 °C 34652.3 hPa WNW 10.3 km/h 18.2 km/h 93 % 0 mm 47.00 W/m2
08:24 -9.8 °C -10.4 °C 34652.3 hPa WNW 10.3 km/h 18.2 km/h 93 % 0 mm 58.00 W/m2
08:29 -9.8 °C -10.4 °C 34652.3 hPa WNW 7.7 km/h 18.2 km/h 93 % 0 mm 60.00 W/m2
08:34 -9.8 °C -10.4 °C 34652.3 hPa WNW 5.1 km/h 15.6 km/h 93 % 0 mm 69.00 W/m2
08:39 -9.8 °C -10.4 °C 34655.7 hPa West 7.7 km/h 15.6 km/h 93 % 0 mm 77.00 W/m2
08:44 -9.8 °C -10.4 °C 34655.7 hPa West 5.1 km/h 7.7 km/h 93 % 0 mm 102.00 W/m2
08:49 -9.8 °C -10.4 °C 34655.7 hPa WNW 5.1 km/h 12.9 km/h 93 % 0 mm 111.00 W/m2
08:54 -9.7 °C -10.3 °C 34659.1 hPa West 5.1 km/h 7.7 km/h 93 % 0 mm 111.00 W/m2
08:59 -9.7 °C -10.3 °C 34662.5 hPa WNW 5.1 km/h 12.9 km/h 93 % 0 mm 118.00 W/m2
09:04 -9.6 °C -10.2 °C 34662.5 hPa NW 5.1 km/h 7.7 km/h 93 % 0 mm 127.00 W/m2
09:09 -9.6 °C -10.2 °C 34665.9 hPa NW 2.6 km/h 5.1 km/h 93 % 0 mm 139.00 W/m2
09:14 -9.6 °C -10.2 °C 34665.9 hPa NW 2.6 km/h 15.6 km/h 93 % 0 mm 223.00 W/m2
09:19 -9.6 °C -10.2 °C 34662.5 hPa NW 5.1 km/h 12.9 km/h 93 % 0 mm 209.00 W/m2
09:24 -9.6 °C -10.3 °C 34665.9 hPa NW 7.7 km/h 23.3 km/h 92 % 0 mm 223.00 W/m2
09:29 -9.5 °C -10.2 °C 34662.5 hPa NW 10.3 km/h 20.8 km/h 92 % 0 mm 174.00 W/m2
09:34 -9.5 °C -10.2 °C 34665.9 hPa NW 10.3 km/h 20.8 km/h 92 % 0 mm 214.00 W/m2
09:39 -9.5 °C -10.2 °C 34665.9 hPa NW 10.3 km/h 15.6 km/h 92 % 0 mm 209.00 W/m2
09:44 -9.5 °C -10.2 °C 34665.9 hPa West 10.3 km/h 10.3 km/h 92 % 0 mm 225.00 W/m2
09:49 -9.4 °C -10.2 °C 34669.3 hPa NW 7.7 km/h 20.8 km/h 92 % 0 mm 236.00 W/m2
09:54 -9.5 °C -10.2 °C 34672.6 hPa NW 7.7 km/h 18.2 km/h 92 % 0 mm 243.00 W/m2
09:59 -9.4 °C -10.2 °C 34672.6 hPa NW 10.3 km/h 23.3 km/h 92 % 0 mm 227.00 W/m2
10:04 -9.5 °C -10.2 °C 34672.6 hPa NNW 10.3 km/h 18.2 km/h 92 % 0 mm 206.00 W/m2
10:09 -9.5 °C -10.2 °C 34672.6 hPa WNW 12.9 km/h 23.3 km/h 92 % 0 mm 264.00 W/m2
10:14 -9.4 °C -10.1 °C 34672.6 hPa WNW 10.3 km/h 18.2 km/h 92 % 0 mm 306.00 W/m2
10:19 -9.3 °C -10.1 °C 34672.6 hPa WNW 7.7 km/h 10.3 km/h 92 % 0 mm 329.00 W/m2
10:24 -9.3 °C -10 °C 34672.6 hPa NW 7.7 km/h 18.2 km/h 92 % 0 mm 313.00 W/m2
10:29 -9.2 °C -9.9 °C 34672.6 hPa West 5.1 km/h 10.3 km/h 91 % 0 mm 258.00 W/m2
10:34 -9.1 °C -9.9 °C 34669.3 hPa WNW 5.1 km/h 15.6 km/h 91 % 0 mm 483.00 W/m2
10:39 -9 °C -9.8 °C 34669.3 hPa NW 5.1 km/h 18.2 km/h 91 % 0 mm 513.00 W/m2
10:44 -9 °C -9.9 °C 34669.3 hPa NW 5.1 km/h 20.8 km/h 90 % 0 mm 640.00 W/m2
10:49 -8.9 °C -9.8 °C 34669.3 hPa NW 10.3 km/h 20.8 km/h 90 % 0 mm 504.00 W/m2
10:54 -8.8 °C -9.8 °C 34669.3 hPa WNW 10.3 km/h 18.2 km/h 89 % 0 mm 283.00 W/m2
10:59 -8.9 °C -9.9 °C 34669.3 hPa WNW 7.7 km/h 18.2 km/h 89 % 0 mm 700.00 W/m2
11:04 -8.9 °C -10.1 °C 34669.3 hPa NW 10.3 km/h 23.3 km/h 88 % 0 mm 642.00 W/m2
11:09 -8.8 °C -9.8 °C 34672.6 hPa NW 10.3 km/h 18.2 km/h 89 % 0 mm 601.00 W/m2
11:14 -8.7 °C -9.8 °C 34672.6 hPa NW 7.7 km/h 20.8 km/h 88 % 0 mm 571.00 W/m2
11:19 -8.6 °C -9.7 °C 34672.6 hPa NW 5.1 km/h 12.9 km/h 88 % 0 mm 793.00 W/m2
11:24 -8.6 °C -9.8 °C 34669.3 hPa WNW 7.7 km/h 20.8 km/h 87 % 0 mm 290.00 W/m2
11:29 -8.6 °C -9.8 °C 34669.3 hPa NNW 7.7 km/h 15.6 km/h 87 % 0 mm 322.00 W/m2
11:34 -8.7 °C -9.9 °C 34669.3 hPa NW 7.7 km/h 18.2 km/h 87 % 0 mm 322.00 W/m2
11:39 -8.7 °C -9.9 °C 34672.6 hPa NW 10.3 km/h 25.9 km/h 86 % 0 mm 573.00 W/m2
11:44 -8.8 °C -9.9 °C 34672.6 hPa NW 12.9 km/h 20.8 km/h 87 % 0 mm 359.00 W/m2
11:49 -8.7 °C -9.9 °C 34672.6 hPa NW 10.3 km/h 18.2 km/h 87 % 0 mm 956.00 W/m2
11:54 -8.8 °C -9.9 °C 34672.6 hPa NNW 10.3 km/h 23.3 km/h 87 % 0 mm 487.00 W/m2
11:59 -8.7 °C -9.8 °C 34676 hPa NW 12.9 km/h 20.8 km/h 88 % 0 mm 468.00 W/m2
12:04 -8.7 °C -9.9 °C 34676 hPa NW 10.3 km/h 15.6 km/h 87 % 0 mm 506.00 W/m2
12:09 -8.6 °C -9.8 °C 34679.4 hPa NW 7.7 km/h 20.8 km/h 87 % 0 mm 575.00 W/m2
12:14 -8.5 °C -9.7 °C 34679.4 hPa NNW 7.7 km/h 18.2 km/h 87 % 0 mm 432.00 W/m2
12:19 -8.4 °C -9.6 °C 34679.4 hPa NNW 7.7 km/h 12.9 km/h 87 % 0 mm 431.00 W/m2
12:24 -8.4 °C -9.8 °C 34676 hPa NW 5.1 km/h 18.2 km/h 86 % 0 mm 454.00 W/m2
12:29 -8.6 °C -9.9 °C 34679.4 hPa NNW 7.7 km/h 20.8 km/h 85 % 0 mm 478.00 W/m2
12:34 -8.6 °C -9.8 °C 34679.4 hPa WNW 7.7 km/h 20.8 km/h 87 % 0 mm 475.00 W/m2
12:39 -8.5 °C -9.8 °C 34679.4 hPa WNW 7.7 km/h 20.8 km/h 86 % 0 mm 439.00 W/m2
12:44 -8.4 °C -9.8 °C 34679.4 hPa WNW 7.7 km/h 25.9 km/h 86 % 0 mm 348.00 W/m2
12:49 -8.6 °C -9.9 °C 34679.4 hPa WNW 7.7 km/h 20.8 km/h 86 % 0 mm 378.00 W/m2
12:54 -8.6 °C -9.9 °C 34682.8 hPa WNW 7.7 km/h 12.9 km/h 86 % 0 mm 422.00 W/m2
12:59 -8.6 °C -9.8 °C 34682.8 hPa West 7.7 km/h 20.8 km/h 87 % 0 mm 420.00 W/m2
13:04 -8.4 °C -9.7 °C 34676 hPa West 5.1 km/h 10.3 km/h 87 % 0 mm 462.00 W/m2
13:09 -8.3 °C -9.6 °C 34672.6 hPa WNW 5.1 km/h 15.6 km/h 87 % 0 mm 1146.00 W/m2
13:14 -8.2 °C -9.5 °C 34672.6 hPa WNW 7.7 km/h 18.2 km/h 86 % 0 mm 793.00 W/m2
13:19 -8.2 °C -9.6 °C 34676 hPa NW 7.7 km/h 23.3 km/h 85 % 0 mm 462.00 W/m2
13:24 -8.4 °C -9.8 °C 34672.6 hPa NW 10.3 km/h 23.3 km/h 85 % 0 mm 513.00 W/m2
13:29 -8.4 °C -9.8 °C 34676 hPa NNW 10.3 km/h 18.2 km/h 86 % 0 mm 863.00 W/m2
13:34 -8.4 °C -9.8 °C 34676 hPa WNW 10.3 km/h 20.8 km/h 86 % 0 mm 1062.00 W/m2
13:39 -8.2 °C -9.6 °C 34676 hPa WNW 10.3 km/h 18.2 km/h 86 % 0 mm 1063.00 W/m2
13:44 -8.3 °C -9.8 °C 34672.6 hPa NW 10.3 km/h 23.3 km/h 84 % 0 mm 306.00 W/m2
13:49 -8.6 °C -9.9 °C 34676 hPa NW 12.9 km/h 23.3 km/h 85 % 0 mm 411.00 W/m2
13:54 -8.7 °C -9.9 °C 34672.6 hPa NW 12.9 km/h 23.3 km/h 86 % 0 mm 998.00 W/m2
13:59 -8.6 °C -9.8 °C 34672.6 hPa WNW 12.9 km/h 20.8 km/h 87 % 0 mm 868.00 W/m2
14:04 -8.5 °C -9.8 °C 34676 hPa NW 12.9 km/h 23.3 km/h 86 % 0 mm 956.00 W/m2
14:09 -8.4 °C -9.8 °C 34672.6 hPa NW 12.9 km/h 25.9 km/h 86 % 0 mm 988.00 W/m2
14:14 -8.4 °C -9.7 °C 34669.3 hPa WNW 12.9 km/h 20.8 km/h 86 % 0 mm 853.00 W/m2
14:19 -8.3 °C -9.6 °C 34669.3 hPa NW 10.3 km/h 20.8 km/h 86 % 0 mm 889.00 W/m2
14:24 -8.3 °C -9.8 °C 34669.3 hPa WNW 12.9 km/h 23.3 km/h 85 % 0 mm 921.00 W/m2
14:29 -8.4 °C -9.8 °C 34672.6 hPa NW 15.6 km/h 25.9 km/h 85 % 0 mm 846.00 W/m2
14:34 -8.5 °C -9.9 °C 34669.3 hPa WNW 15.6 km/h 25.9 km/h 85 % 0 mm 823.00 W/m2
14:39 -8.4 °C -9.8 °C 34669.3 hPa WNW 15.6 km/h 20.8 km/h 86 % 0 mm 853.00 W/m2
14:44 -8.4 °C -9.8 °C 34669.3 hPa NW 12.9 km/h 33.6 km/h 85 % 0 mm 872.00 W/m2
14:49 -8.4 °C -9.8 °C 34665.9 hPa NW 12.9 km/h 20.8 km/h 85 % 0 mm 875.00 W/m2
14:54 -8.2 °C -9.5 °C 34669.3 hPa West 10.3 km/h 18.2 km/h 86 % 0 mm 905.00 W/m2
14:59 -7.9 °C -9.5 °C 34665.9 hPa WNW 7.7 km/h 28.5 km/h 84 % 0 mm 926.00 W/m2
15:04 -8.2 °C -9.8 °C 34662.5 hPa NW 10.3 km/h 25.9 km/h 83 % 0 mm 896.00 W/m2
15:09 -8.4 °C -9.9 °C 34662.5 hPa NW 15.6 km/h 28.5 km/h 84 % 0 mm 884.00 W/m2
15:14 -8.5 °C -9.9 °C 34662.5 hPa NW 15.6 km/h 33.6 km/h 85 % 0 mm 877.00 W/m2
15:19 -8.5 °C -9.9 °C 34659.1 hPa NW 15.6 km/h 25.9 km/h 85 % 0 mm 944.00 W/m2
15:24 -8.4 °C -9.8 °C 34659.1 hPa NW 15.6 km/h 23.3 km/h 85 % 0 mm 879.00 W/m2
15:29 -8.4 °C -9.8 °C 34659.1 hPa WNW 15.6 km/h 31.1 km/h 85 % 0 mm 902.00 W/m2
15:34 -8.5 °C -9.9 °C 34659.1 hPa NW 15.6 km/h 28.5 km/h 85 % 0 mm 900.00 W/m2
15:39 -8.4 °C -9.8 °C 34659.1 hPa WNW 15.6 km/h 28.5 km/h 85 % 0 mm 610.00 W/m2
15:44 -8.3 °C -9.7 °C 34659.1 hPa WNW 12.9 km/h 25.9 km/h 85 % 0 mm 882.00 W/m2
15:49 -8.3 °C -9.8 °C 34659.1 hPa NNW 10.3 km/h 28.5 km/h 84 % 0 mm 872.00 W/m2
15:54 -8.2 °C -9.8 °C 34659.1 hPa WNW 10.3 km/h 28.5 km/h 84 % 0 mm 830.00 W/m2
15:59 -8.1 °C -9.7 °C 34659.1 hPa NW 10.3 km/h 36.2 km/h 83 % 0 mm 840.00 W/m2
16:04 -8.3 °C -10 °C 34655.7 hPa NW 10.3 km/h 25.9 km/h 82 % 0 mm 861.00 W/m2
16:09 -8.3 °C -9.9 °C 34655.7 hPa NW 15.6 km/h 20.8 km/h 83 % 0 mm 819.00 W/m2
16:14 -8.4 °C -10.2 °C 34655.7 hPa NW 15.6 km/h 31.1 km/h 82 % 0 mm 861.00 W/m2
16:19 -8.4 °C -10 °C 34655.7 hPa NW 15.6 km/h 28.5 km/h 83 % 0 mm 828.00 W/m2
16:24 -8.4 °C -10 °C 34652.3 hPa NW 12.9 km/h 28.5 km/h 83 % 0 mm 830.00 W/m2
16:29 -8.5 °C -10 °C 34652.3 hPa WNW 15.6 km/h 25.9 km/h 84 % 0 mm 805.00 W/m2
16:34 -8.5 °C -10.1 °C 34652.3 hPa NW 15.6 km/h 28.5 km/h 83 % 0 mm 826.00 W/m2
16:39 -8.6 °C -10.2 °C 34652.3 hPa NW 15.6 km/h 31.1 km/h 83 % 0 mm 812.00 W/m2
16:44 -8.6 °C -10.1 °C 34645.6 hPa WNW 18.2 km/h 25.9 km/h 84 % 0 mm 789.00 W/m2
16:49 -8.4 °C -9.9 °C 34645.6 hPa WNW 15.6 km/h 20.8 km/h 84 % 0 mm 814.00 W/m2
16:54 -8.4 °C -10.1 °C 34642.2 hPa NW 12.9 km/h 33.6 km/h 83 % 0 mm 751.00 W/m2
16:59 -8.4 °C -10 °C 34638.8 hPa NW 12.9 km/h 28.5 km/h 83 % 0 mm 795.00 W/m2
17:04 -8.6 °C -10.2 °C 34638.8 hPa NW 15.6 km/h 33.6 km/h 83 % 0 mm 791.00 W/m2
17:09 -8.6 °C -10.1 °C 34642.2 hPa NW 18.2 km/h 31.1 km/h 84 % 0 mm 780.00 W/m2
17:14 -8.6 °C -10.1 °C 34642.2 hPa NW 15.6 km/h 28.5 km/h 84 % 0 mm 749.00 W/m2
17:19 -8.4 °C -9.9 °C 34642.2 hPa NW 15.6 km/h 28.5 km/h 84 % 0 mm 735.00 W/m2
17:24 -8.4 °C -10 °C 34638.8 hPa NW 12.9 km/h 20.8 km/h 83 % 0 mm 733.00 W/m2
17:29 -8.3 °C -9.9 °C 34638.8 hPa WNW 12.9 km/h 18.2 km/h 83 % 0 mm 719.00 W/m2
17:34 -8.3 °C -9.9 °C 34638.8 hPa WNW 10.3 km/h 20.8 km/h 83 % 0 mm 710.00 W/m2
17:39 -8.2 °C -9.8 °C 34638.8 hPa WNW 10.3 km/h 20.8 km/h 83 % 0 mm 680.00 W/m2
17:44 -8.2 °C -9.9 °C 34638.8 hPa WNW 10.3 km/h 25.9 km/h 82 % 0 mm 684.00 W/m2
17:49 -8.3 °C -10 °C 34638.8 hPa NW 10.3 km/h 20.8 km/h 82 % 0 mm 670.00 W/m2
17:54 -8.3 °C -10 °C 34638.8 hPa WNW 10.3 km/h 28.5 km/h 82 % 0 mm 673.00 W/m2
17:59 -8.3 °C -9.9 °C 34638.8 hPa WNW 10.3 km/h 20.8 km/h 83 % 0 mm 642.00 W/m2
18:04 -8.2 °C -9.9 °C 34642.2 hPa West 10.3 km/h 28.5 km/h 82 % 0 mm 668.00 W/m2
18:09 -8.2 °C -10.1 °C 34642.2 hPa WNW 7.7 km/h 28.5 km/h 81 % 0 mm 635.00 W/m2
18:14 -8.3 °C -9.9 °C 34638.8 hPa WNW 10.3 km/h 20.8 km/h 83 % 0 mm 619.00 W/m2
18:19 -8.3 °C -9.9 °C 34638.8 hPa WNW 12.9 km/h 20.8 km/h 83 % 0 mm 598.00 W/m2
18:24 -8.2 °C -9.9 °C 34635.4 hPa West 10.3 km/h 20.8 km/h 82 % 0 mm 587.00 W/m2
18:29 -8.3 °C -10 °C 34632 hPa WNW 10.3 km/h 20.8 km/h 82 % 0 mm 573.00 W/m2
18:34 -8.4 °C -10.2 °C 34632 hPa WNW 10.3 km/h 25.9 km/h 82 % 0 mm 554.00 W/m2
18:39 -8.4 °C -10 °C 34628.6 hPa NW 10.3 km/h 31.1 km/h 83 % 0 mm 538.00 W/m2
18:44 -8.4 °C -10.2 °C 34628.6 hPa WNW 10.3 km/h 23.3 km/h 82 % 0 mm 520.00 W/m2
18:49 -8.5 °C -10.1 °C 34632 hPa NW 12.9 km/h 31.1 km/h 83 % 0 mm 508.00 W/m2
18:54 -8.5 °C -10.1 °C 34628.6 hPa NW 12.9 km/h 25.9 km/h 83 % 0 mm 494.00 W/m2
18:59 -8.6 °C -10.2 °C 34625.2 hPa NW 12.9 km/h 18.2 km/h 83 % 0 mm 480.00 W/m2
19:04 -8.5 °C -10 °C 34628.6 hPa WSW 10.3 km/h 20.8 km/h 84 % 0 mm 468.00 W/m2
19:09 -8.5 °C -10.1 °C 34628.6 hPa NW 10.3 km/h 20.8 km/h 83 % 0 mm 455.00 W/m2
19:14 -8.6 °C -10.2 °C 34628.6 hPa NW 10.3 km/h 28.5 km/h 83 % 0 mm 439.00 W/m2
19:19 -8.6 °C -10.1 °C 34625.2 hPa WNW 12.9 km/h 20.8 km/h 84 % 0 mm 424.00 W/m2
19:24 -8.5 °C -10 °C 34625.2 hPa NW 10.3 km/h 20.8 km/h 84 % 0 mm 411.00 W/m2
19:29 -8.5 °C -10 °C 34625.2 hPa West 7.7 km/h 18.2 km/h 84 % 0 mm 399.00 W/m2
19:34 -8.4 °C -10.1 °C 34625.2 hPa West 7.7 km/h 20.8 km/h 83 % 0 mm 381.00 W/m2
19:39 -8.5 °C -10.1 °C 34628.6 hPa WNW 10.3 km/h 20.8 km/h 83 % 0 mm 369.00 W/m2
19:44 -8.4 °C -9.9 °C 34628.6 hPa West 10.3 km/h 23.3 km/h 84 % 0 mm 357.00 W/m2
19:49 -8.5 °C -10.1 °C 34625.2 hPa West 10.3 km/h 28.5 km/h 83 % 0 mm 345.00 W/m2
19:54 -8.6 °C -10.2 °C 34625.2 hPa WNW 10.3 km/h 20.8 km/h 83 % 0 mm 329.00 W/m2
19:59 -8.6 °C -10.1 °C 34625.2 hPa WNW 10.3 km/h 20.8 km/h 84 % 0 mm 313.00 W/m2
20:04 -8.6 °C -10.2 °C 34625.2 hPa WNW 10.3 km/h 23.3 km/h 83 % 0 mm 299.00 W/m2
20:09 -8.7 °C -10.2 °C 34625.2 hPa NW 10.3 km/h 15.6 km/h 84 % 0 mm 287.00 W/m2
20:14 -8.7 °C -10.2 °C 34621.9 hPa West 10.3 km/h 18.2 km/h 84 % 0 mm 272.00 W/m2
20:19 -8.7 °C -10.2 °C 34621.9 hPa NW 7.7 km/h 18.2 km/h 84 % 0 mm 258.00 W/m2
20:24 -8.6 °C -10.1 °C 34621.9 hPa NW 5.1 km/h 18.2 km/h 84 % 0 mm 241.00 W/m2
20:29 -8.7 °C -10.2 °C 34625.2 hPa WNW 7.7 km/h 23.3 km/h 84 % 0 mm 225.00 W/m2
20:34 -8.7 °C -10.2 °C 34625.2 hPa West 10.3 km/h 15.6 km/h 84 % 0 mm 207.00 W/m2
20:39 -8.7 °C -10.2 °C 34621.9 hPa NW 7.7 km/h 18.2 km/h 84 % 0 mm 192.00 W/m2
20:44 -8.7 °C -10.2 °C 34625.2 hPa West 5.1 km/h 12.9 km/h 84 % 0 mm 142.00 W/m2
20:49 -8.7 °C -10.2 °C 34625.2 hPa WNW 5.1 km/h 18.2 km/h 84 % 0 mm 160.00 W/m2
20:54 -8.7 °C -10.2 °C 34625.2 hPa WNW 7.7 km/h 18.2 km/h 84 % 0 mm 171.00 W/m2
20:59 -8.8 °C -10.3 °C 34625.2 hPa West 10.3 km/h 23.3 km/h 84 % 0 mm 153.00 W/m2
21:04 -8.9 °C -10.3 °C 34625.2 hPa WNW 10.3 km/h 20.8 km/h 85 % 0 mm 113.00 W/m2
21:09 -9.1 °C -10.4 °C 34625.2 hPa WNW 12.9 km/h 25.9 km/h 85 % 0 mm 56.00 W/m2
21:14 -9.1 °C -10.5 °C 34625.2 hPa WNW 12.9 km/h 20.8 km/h 85 % 0 mm 93.00 W/m2
21:19 -9.2 °C -10.4 °C 34625.2 hPa WNW 10.3 km/h 20.8 km/h 86 % 0 mm 49.00 W/m2
21:24 -9.2 °C -10.5 °C 34621.9 hPa WNW 10.3 km/h 23.3 km/h 86 % 0 mm 37.00 W/m2
21:29 -9.2 °C -10.4 °C 34625.2 hPa NW 10.3 km/h 18.2 km/h 87 % 0 mm 30.00 W/m2
21:34 -9.3 °C -10.4 °C 34625.2 hPa WNW 10.3 km/h 23.3 km/h 87 % 0 mm 26.00 W/m2
21:39 -9.3 °C -10.4 °C 34625.2 hPa WNW 10.3 km/h 18.2 km/h 88 % 0 mm 28.00 W/m2
21:44 -9.3 °C -10.4 °C 34625.2 hPa WNW 10.3 km/h 20.8 km/h 88 % 0 mm 32.00 W/m2
21:49 -9.3 °C -10.3 °C 34621.9 hPa West 10.3 km/h 15.6 km/h 89 % 0 mm 26.00 W/m2
21:54 -9.3 °C -10.4 °C 34625.2 hPa WNW 7.7 km/h 25.9 km/h 88 % 0 mm 16.00 W/m2
21:59 -9.4 °C -10.4 °C 34621.9 hPa NW 10.3 km/h 20.8 km/h 89 % 0 mm 12.00 W/m2
22:04 -9.5 °C -10.5 °C 34621.9 hPa WNW 12.9 km/h 23.3 km/h 89 % 0 mm 11.00 W/m2
22:09 -9.5 °C -10.5 °C 34621.9 hPa WNW 10.3 km/h 20.8 km/h 89 % 0 mm 7.00 W/m2
22:14 -9.5 °C -10.5 °C 34621.9 hPa WNW 7.7 km/h 23.3 km/h 89 % 0 mm 0.00 W/m2
22:19 -9.6 °C -10.4 °C 34621.9 hPa WNW 7.7 km/h 12.9 km/h 90 % 0 mm 0.00 W/m2
22:24 -9.6 °C -10.4 °C 34621.9 hPa WNW 5.1 km/h 18.2 km/h 90 % 0 mm 0.00 W/m2
22:29 -9.6 °C -10.5 °C 34621.9 hPa WNW 5.1 km/h 15.6 km/h 90 % 0 mm 0.00 W/m2
22:34 -9.6 °C -10.5 °C 34621.9 hPa WNW 7.7 km/h 15.6 km/h 90 % 0 mm 0.00 W/m2
22:39 -9.7 °C -10.6 °C 34621.9 hPa WNW 7.7 km/h 20.8 km/h 90 % 0 mm 0.00 W/m2
22:44 -9.7 °C -10.6 °C 34625.2 hPa WNW 10.3 km/h 25.9 km/h 90 % 0 mm 0.00 W/m2
22:49 -9.7 °C -10.6 °C 34625.2 hPa WNW 12.9 km/h 23.3 km/h 90 % 0 mm 0.00 W/m2
22:54 -9.7 °C -10.5 °C 34625.2 hPa WNW 15.6 km/h 23.3 km/h 91 % 0 mm 0.00 W/m2
22:59 -9.7 °C -10.5 °C 34628.6 hPa WNW 15.6 km/h 23.3 km/h 91 % 0 mm 0.00 W/m2
23:04 -9.8 °C -10.6 °C 34628.6 hPa West 12.9 km/h 23.3 km/h 91 % 0 mm 0.00 W/m2
23:09 -9.8 °C -10.6 °C 34628.6 hPa WNW 10.3 km/h 20.8 km/h 91 % 0 mm 0.00 W/m2
23:14 -9.8 °C -10.6 °C 34628.6 hPa WNW 10.3 km/h 20.8 km/h 91 % 0 mm 0.00 W/m2
23:19 -9.8 °C -10.6 °C 34632 hPa WNW 10.3 km/h 23.3 km/h 91 % 0 mm 0.00 W/m2
23:24 -9.7 °C -10.5 °C 34632 hPa WNW 10.3 km/h 23.3 km/h 91 % 0 mm 0.00 W/m2
23:29 -9.7 °C -10.5 °C 34632 hPa WNW 10.3 km/h 18.2 km/h 91 % 0 mm 0.00 W/m2
23:34 -9.7 °C -10.5 °C 34632 hPa WNW 10.3 km/h 23.3 km/h 91 % 0 mm 0.00 W/m2
23:39 -9.7 °C -10.5 °C 34632 hPa WNW 12.9 km/h 23.3 km/h 91 % 0 mm 0.00 W/m2
23:44 -9.7 °C -10.4 °C 34632 hPa West 10.3 km/h 12.9 km/h 91 % 0 mm 0.00 W/m2
23:49 -9.7 °C -10.6 °C 34628.6 hPa NW 7.7 km/h 18.2 km/h 90 % 0 mm 0.00 W/m2
23:54 -9.7 °C -10.6 °C 34632 hPa WNW 5.1 km/h 15.6 km/h 90 % 0 mm 0.00 W/m2
23:59 -9.7 °C -10.6 °C 34628.6 hPa NW 5.1 km/h 20.8 km/h 90 % 0 mm 0.00 W/m2
Meteocoruña
Agradecimientos a Weather Underground - 3 mb